QPF
0.01 0.02 0.05 0.08 0.09 0.08 0.07 0.08 0.09 0.12 0.14 0.17 0.19 0.17 0.16 0.17 0.17 0.14 0.11 0.12 0.14 0.19 0.21 0.19 0.16 0.13 0.10 0.09 0.09 0.08 0.06 0.07 0.07 0.06 0.06 0.06 0.05 0.06 0.06 0.07 0.05 0.04 0.06
0.01 0.02 0.05 0.08 0.09 0.07 0.06 0.07 0.10 0.11 0.14 0.13 0.15 0.15 0.16 0.17 0.18 0.18 0.14 0.12 0.11 0.14 0.16 0.15 0.12 0.10 0.09 0.09 0.08 0.07 0.07 0.07 0.07 0.06 0.06 0.06 0.06 0.06 0.06 0.04 0.04 0.04 0.04
0.03 0.04 0.05 0.09 0.08 0.06 0.06 0.06 0.08 0.08 0.12 0.12 0.14 0.15 0.14 0.14 0.15 0.15 0.10 0.09 0.10 0.12 0.12 0.11 0.12 0.09 0.09 0.09 0.06 0.06 0.05 0.05 0.06 0.05 0.05 0.05 0.04 0.04 0.05 0.04 0.03 0.03 0.02
0.04 0.06 0.07 0.08 0.07 0.06 0.05 0.05 0.06 0.07 0.11 0.13 0.14 0.15 0.14 0.13 0.14 0.16 0.12 0.09 0.11 0.13 0.12 0.13 0.13 0.10 0.09 0.07 0.06 0.04 0.03 0.03 0.04 0.03 0.03 0.04 0.03 0.03 0.03 0.04 0.03 0.02 0.02
0.04 0.06 0.07 0.05 0.06 0.06 0.06 0.05 0.06 0.06 0.10 0.11 0.14 0.16 0.17 0.16 0.16 0.16 0.15 0.16 0.19 0.18 0.16 0.12 0.12 0.11 0.09 0.07 0.04 0.03 0.03 0.03 0.03 0.03 0.03 0.04 0.03 0.02 0.02 0.02 0.03 0.03 0.02
0.02 0.04 0.06 0.05 0.06 0.06 0.06 0.06 0.06 0.06 0.06 0.09 0.14 0.14 0.14 0.14 0.12 0.12 0.12 0.15 0.17 0.15 0.13 0.13 0.13 0.11 0.07 0.04 0.04 0.03 0.03 0.02 0.01 0.02 0.03 0.04 0.02 0.02 0.03 0.02 0.02 0.03 0.02
0.01 0.03 0.05 0.06 0.05 0.05 0.05 0.05 0.05 0.07 0.07 0.10 0.15 0.14 0.13 0.11 0.11 0.10 0.11 0.14 0.17 0.16 0.13 0.10 0.08 0.07 0.05 0.04 0.04 0.03 0.02 0.02 0.01 0.02 0.03 0.04 0.02 0.02 0.03 0.03 0.02 0.02 0.02
0.01 0.02 0.03 0.04 0.05 0.05 0.06 0.06 0.06 0.10 0.11 0.13 0.12 0.13 0.12 0.09 0.08 0.09 0.10 0.10 0.09 0.09 0.08 0.07 0.06 0.06 0.04 0.04 0.04 0.03 0.02 0.01 0.01 0.01 0.02 0.03 0.02 0.01 0.01 0.02 0.02 0.01 0.02
0.01 0.01 0.01 0.02 0.04 0.06 0.12 0.16 0.15 0.14 0.13 0.14 0.12 0.11 0.11 0.09 0.08 0.09 0.08 0.08 0.06 0.06 0.06 0.06 0.05 0.04 0.03 0.03 0.03 0.03 0.03 0.03 0.01 0.01 0.01 0.02 0.01 0.01 0.02 0.02 0.02 0.02 0.01
0.01 0.01 0.01 0.02 0.02 0.05 0.11 0.16 0.16 0.15 0.14 0.15 0.14 0.11 0.10 0.09 0.08 0.09 0.08 0.07 0.07 0.06 0.06 0.06 0.05 0.04 0.02 0.03 0.04 0.03 0.02 0.03 0.02 0.01 0.01 0.01 0.01 0.02 0.02 0.03 0.03 0.02 0.02
0.01 0.01 0.01 0.02 0.02 0.03 0.06 0.12 0.14 0.14 0.13 0.13 0.14 0.12 0.09 0.08 0.08 0.10 0.10 0.10 0.09 0.07 0.06 0.06 0.05 0.04 0.03 0.05 0.06 0.03 0.01 0.02 0.02 0.01 0.02 0.01 0.01 0.02 0.02 0.02 0.02 0.02 0.01
0.01 0.01 0.01 0.01 0.02 0.02 0.04 0.06 0.05 0.06 0.07 0.09 0.11 0.13 0.10 0.09 0.10 0.10 0.14 0.14 0.11 0.09 0.07 0.06 0.05 0.03 0.03 0.05 0.05 0.02 0.01 0.00 0.01 0.01 0.02 0.02 0.01 0.02 0.03 0.03 0.02 0.02 0.02
0.02 0.01 0.02 0.02 0.02 0.02 0.03 0.04 0.06 0.05 0.06 0.08 0.10 0.14 0.13 0.12 0.12 0.13 0.15 0.13 0.11 0.08 0.07 0.06 0.05 0.03 0.03 0.04 0.03 0.02 0.00 0.00 0.00 0.01 0.02 0.01 0.01 0.03 0.03 0.02 0.02 0.02 0.03
0.01 0.01 0.01 0.01 0.02 0.02 0.03 0.03 0.05 0.03 0.04 0.06 0.08 0.14 0.12 0.12 0.13 0.12 0.11 0.09 0.07 0.06 0.06 0.05 0.05 0.03 0.03 0.03 0.03 0.02 0.01 0.01 0.01 0.02 0.03 0.02 0.02 0.03 0.04 0.03 0.03 0.03 0.04
0.01 0.01 0.01 0.01 0.02 0.02 0.03 0.03 0.03 0.04 0.04 0.06 0.09 0.15 0.12 0.11 0.12 0.10 0.09 0.07 0.04 0.03 0.04 0.05 0.06 0.05 0.05 0.04 0.04 0.03 0.02 0.01 0.01 0.02 0.02 0.02 0.02 0.03 0.04 0.06 0.06 0.06 0.07
0.01 0.01 0.01 0.01 0.03 0.04 0.04 0.03 0.03 0.04 0.06 0.08 0.11 0.16 0.14 0.10 0.10 0.10 0.08 0.07 0.04 0.04 0.05 0.06 0.08 0.07 0.07 0.07 0.05 0.04 0.03 0.02 0.02 0.02 0.02 0.03 0.02 0.04 0.05 0.08 0.10 0.12 0.13
0.01 0.02 0.02 0.01 0.03 0.05 0.05 0.03 0.02 0.02 0.03 0.08 0.12 0.14 0.13 0.10 0.10 0.10 0.09 0.08 0.05 0.04 0.06 0.10 0.11 0.09 0.08 0.07 0.06 0.05 0.05 0.05 0.04 0.03 0.02 0.04 0.04 0.05 0.07 0.08 0.08 0.13 0.15
0.01 0.02 0.02 0.01 0.03 0.06 0.06 0.05 0.02 0.02 0.03 0.06 0.10 0.11 0.10 0.09 0.10 0.10 0.10 0.08 0.07 0.07 0.10 0.15 0.14 0.12 0.11 0.09 0.09 0.09 0.08 0.09 0.07 0.05 0.04 0.04 0.05 0.05 0.07 0.09 0.10 0.11 0.15
0.01 0.01 0.02 0.02 0.03 0.04 0.03 0.03 0.02 0.02 0.03 0.03 0.05 0.08 0.09 0.07 0.07 0.08 0.12 0.12 0.11 0.11 0.13 0.13 0.14 0.14 0.10 0.08 0.07 0.07 0.06 0.09 0.09 0.07 0.06 0.05 0.06 0.07 0.07 0.08 0.08 0.08 0.10
0.00 0.01 0.02 0.03 0.03 0.03 0.02 0.03 0.03 0.03 0.03 0.03 0.03 0.07 0.07 0.06 0.06 0.09 0.13 0.14 0.13 0.13 0.14 0.14 0.14 0.13 0.09 0.08 0.06 0.05 0.04 0.04 0.06 0.05 0.05 0.06 0.07 0.06 0.07 0.09 0.10 0.09 0.10
0.00 0.01 0.04 0.06 0.02 0.02 0.03 0.04 0.05 0.05 0.04 0.04 0.03 0.03 0.04 0.04 0.06 0.09 0.11 0.13 0.13 0.12 0.12 0.12 0.11 0.08 0.08 0.07 0.07 0.06 0.04 0.03 0.03 0.02 0.04 0.05 0.05 0.06 0.08 0.08 0.09 0.11 0.10
0.00 0.00 0.01 0.02 0.02 0.02 0.02 0.03 0.03 0.04 0.03 0.03 0.03 0.03 0.03 0.03 0.05 0.07 0.12 0.11 0.10 0.10 0.09 0.08 0.08 0.07 0.06 0.05 0.06 0.05 0.05 0.04 0.03 0.03 0.04 0.04 0.05 0.06 0.07 0.07 0.09 0.10 0.09
0.00 0.00 0.00 0.01 0.02 0.02 0.01 0.02 0.02 0.02 0.02 0.03 0.03 0.04 0.04 0.04 0.03 0.04 0.06 0.07 0.08 0.05 0.05 0.06 0.05 0.06 0.05 0.05 0.04 0.06 0.06 0.05 0.04 0.03 0.03 0.03 0.04 0.05 0.06 0.07 0.07 0.05 0.06
0.00 0.00 0.00 0.01 0.01 0.01 0.01 0.02 0.02 0.03 0.04 0.04 0.04 0.04 0.03 0.03 0.02 0.03 0.03 0.04 0.05 0.04 0.06 0.04 0.04 0.05 0.06 0.06 0.05 0.04 0.06 0.06 0.05 0.04 0.03 0.02 0.02 0.03 0.04 0.04 0.05 0.03 0.05
0.00 0.00 0.00 0.01 0.01 0.01 0.01 0.01 0.03 0.04 0.05 0.04 0.04 0.04 0.03 0.02 0.02 0.01 0.02 0.02 0.03 0.03 0.04 0.04 0.04 0.05 0.05 0.05 0.05 0.04 0.05 0.05 0.05 0.05 0.04 0.03 0.04 0.04 0.03 0.03 0.03 0.05 0.06
0.00 0.00 0.00 0.01 0.01 0.01 0.01 0.00 0.01 0.03 0.04 0.03 0.04 0.04 0.04 0.03 0.03 0.02 0.02 0.03 0.03 0.02 0.03 0.04 0.05 0.05 0.04 0.05 0.05 0.04 0.05 0.06 0.07 0.06 0.05 0.05 0.05 0.05 0.04 0.03 0.04 0.05 0.05
MSLP
1013.30 1013.13 1013.07 1013.11 1013.20 1013.28 1013.29 1013.19 1012.98 1012.66 1012.31 1011.98 1011.71 1011.54 1011.45 1011.43 1011.43 1011.42 1011.37 1011.30 1011.22 1011.17 1011.18 1011.29 1011.49 1011.77 1012.08 1012.39 1012.66 1012.89 1013.08 1013.25 1013.44 1013.68 1013.99 1014.35 1014.76 1015.17 1015.56 1015.90 1016.18 1016.42 1016.62
1013.57 1013.43 1013.40 1013.45 1013.55 1013.63 1013.64 1013.54 1013.33 1013.03 1012.70 1012.39 1012.16 1012.02 1011.98 1011.99 1012.03 1012.04 1012.02 1011.96 1011.89 1011.86 1011.89 1012.02 1012.24 1012.52 1012.83 1013.11 1013.34 1013.50 1013.63 1013.74 1013.89 1014.11 1014.41 1014.80 1015.23 1015.68 1016.09 1016.44 1016.71 1016.91 1017.08
1013.69 1013.59 1013.59 1013.68 1013.81 1013.93 1013.98 1013.92 1013.75 1013.49 1013.20 1012.93 1012.73 1012.62 1012.60 1012.62 1012.66 1012.67 1012.64 1012.58 1012.52 1012.49 1012.55 1012.70 1012.93 1013.22 1013.51 1013.77 1013.96 1014.07 1014.14 1014.21 1014.32 1014.51 1014.81 1015.21 1015.66 1016.13 1016.55 1016.90 1017.17 1017.35 1017.48
1013.65 1013.60 1013.66 1013.81 1014.00 1014.19 1014.31 1014.32 1014.22 1014.03 1013.79 1013.57 1013.41 1013.31 1013.29 1013.31 1013.33 1013.33 1013.28 1013.21 1013.14 1013.12 1013.19 1013.35 1013.60 1013.89 1014.18 1014.41 1014.56 1014.63 1014.65 1014.66 1014.73 1014.90 1015.19 1015.59 1016.05 1016.52 1016.95 1017.30 1017.55 1017.73 1017.85
1013.51 1013.51 1013.63 1013.85 1014.13 1014.41 1014.62 1014.72 1014.71 1014.59 1014.42 1014.25 1014.11 1014.04 1014.01 1014.02 1014.02 1013.99 1013.93 1013.85 1013.78 1013.78 1013.86 1014.03 1014.28 1014.57 1014.84 1015.04 1015.15 1015.17 1015.14 1015.11 1015.15 1015.29 1015.56 1015.95 1016.40 1016.86 1017.29 1017.64 1017.89 1018.06 1018.19
1013.35 1013.39 1013.57 1013.87 1014.23 1014.59 1014.90 1015.09 1015.16 1015.11 1015.00 1014.87 1014.76 1014.70 1014.68 1014.68 1014.68 1014.64 1014.57 1014.50 1014.44 1014.45 1014.54 1014.73 1014.98 1015.26 1015.50 1015.66 1015.73 1015.70 1015.62 1015.55 1015.55 1015.67 1015.92 1016.29 1016.72 1017.18 1017.59 1017.93 1018.18 1018.36 1018.49
1013.24 1013.31 1013.53 1013.88 1014.31 1014.74 1015.11 1015.37 1015.50 1015.51 1015.44 1015.35 1015.27 1015.23 1015.23 1015.24 1015.24 1015.22 1015.17 1015.11 1015.08 1015.10 1015.21 1015.40 1015.65 1015.90 1016.11 1016.23 1016.24 1016.17 1016.05 1015.95 1015.92 1016.02 1016.25 1016.60 1017.03 1017.47 1017.87 1018.20 1018.45 1018.62 1018.77
1013.24 1013.32 1013.55 1013.93 1014.38 1014.84 1015.24 1015.53 1015.68 1015.72 1015.69 1015.63 1015.58 1015.57 1015.60 1015.64 1015.67 1015.68 1015.66 1015.64 1015.63 1015.68 1015.80 1015.98 1016.21 1016.44 1016.60 1016.67 1016.65 1016.53 1016.38 1016.25 1016.21 1016.30 1016.53 1016.88 1017.30 1017.74 1018.13 1018.45 1018.68 1018.85 1018.99
1013.35 1013.42 1013.65 1014.01 1014.45 1014.90 1015.28 1015.55 1015.70 1015.74 1015.72 1015.69 1015.67 1015.70 1015.77 1015.86 1015.94 1015.99 1016.01 1016.02 1016.05 1016.11 1016.24 1016.41 1016.61 1016.79 1016.92 1016.95 1016.88 1016.73 1016.56 1016.43 1016.40 1016.50 1016.74 1017.11 1017.54 1017.97 1018.36 1018.67 1018.89 1019.04 1019.16
1013.56 1013.61 1013.80 1014.13 1014.52 1014.91 1015.23 1015.46 1015.58 1015.61 1015.60 1015.59 1015.61 1015.69 1015.80 1015.94 1016.06 1016.15 1016.21 1016.25 1016.29 1016.36 1016.48 1016.63 1016.80 1016.94 1017.03 1017.02 1016.93 1016.77 1016.60 1016.49 1016.47 1016.61 1016.88 1017.27 1017.72 1018.17 1018.56 1018.86 1019.06 1019.18 1019.27
1013.81 1013.83 1013.99 1014.25 1014.58 1014.89 1015.15 1015.31 1015.39 1015.41 1015.40 1015.41 1015.47 1015.59 1015.75 1015.93 1016.09 1016.21 1016.29 1016.34 1016.38 1016.43 1016.53 1016.65 1016.79 1016.90 1016.95 1016.92 1016.82 1016.67 1016.52 1016.43 1016.46 1016.63 1016.95 1017.38 1017.86 1018.32 1018.72 1019.01 1019.19 1019.29 1019.34
1014.05 1014.05 1014.18 1014.39 1014.64 1014.88 1015.06 1015.17 1015.22 1015.22 1015.22 1015.26 1015.36 1015.51 1015.71 1015.91 1016.08 1016.21 1016.28 1016.31 1016.33 1016.36 1016.42 1016.52 1016.62 1016.71 1016.74 1016.71 1016.61 1016.48 1016.36 1016.32 1016.39 1016.61 1016.97 1017.44 1017.95 1018.43 1018.84 1019.13 1019.30 1019.36 1019.38
1014.26 1014.26 1014.35 1014.52 1014.71 1014.89 1015.02 1015.09 1015.11 1015.11 1015.13 1015.20 1015.33 1015.51 1015.72 1015.93 1016.09 1016.19 1016.23 1016.23 1016.21 1016.21 1016.24 1016.30 1016.38 1016.46 1016.49 1016.47 1016.39 1016.29 1016.20 1016.20 1016.31 1016.56 1016.96 1017.45 1017.98 1018.49 1018.90 1019.20 1019.36 1019.41 1019.40
1014.42 1014.43 1014.51 1014.65 1014.81 1014.94 1015.04 1015.09 1015.10 1015.12 1015.17 1015.26 1015.41 1015.61 1015.82 1016.00 1016.13 1016.19 1016.19 1016.14 1016.07 1016.03 1016.04 1016.08 1016.16 1016.23 1016.27 1016.27 1016.22 1016.14 1016.09 1016.11 1016.24 1016.52 1016.93 1017.43 1017.97 1018.48 1018.91 1019.21 1019.38 1019.43 1019.41
1014.54 1014.57 1014.66 1014.79 1014.92 1015.04 1015.12 1015.17 1015.20 1015.23 1015.30 1015.42 1015.58 1015.77 1015.95 1016.10 1016.18 1016.19 1016.14 1016.04 1015.95 1015.88 1015.87 1015.91 1015.99 1016.07 1016.14 1016.15 1016.12 1016.07 1016.03 1016.06 1016.20 1016.47 1016.86 1017.35 1017.89 1018.39 1018.83 1019.14 1019.32 1019.39 1019.38
1014.65 1014.70 1014.79 1014.92 1015.05 1015.16 1015.25 1015.30 1015.35 1015.40 1015.48 1015.60 1015.75 1015.92 1016.06 1016.16 1016.20 1016.16 1016.07 1015.95 1015.83 1015.76 1015.75 1015.80 1015.90 1016.00 1016.08 1016.11 1016.10 1016.06 1016.02 1016.04 1016.15 1016.39 1016.75 1017.21 1017.71 1018.20 1018.63 1018.96 1019.17 1019.27 1019.29
1014.74 1014.81 1014.92 1015.05 1015.18 1015.29 1015.37 1015.44 1015.49 1015.55 1015.62 1015.73 1015.85 1015.98 1016.08 1016.13 1016.12 1016.06 1015.94 1015.82 1015.71 1015.66 1015.66 1015.74 1015.85 1015.97 1016.06 1016.10 1016.09 1016.05 1016.00 1015.99 1016.07 1016.26 1016.57 1016.97 1017.43 1017.90 1018.32 1018.66 1018.89 1019.03 1019.09
1014.81 1014.90 1015.02 1015.15 1015.27 1015.38 1015.47 1015.53 1015.57 1015.62 1015.68 1015.75 1015.82 1015.90 1015.95 1015.96 1015.92 1015.84 1015.73 1015.63 1015.55 1015.53 1015.57 1015.67 1015.79 1015.92 1016.02 1016.06 1016.04 1015.98 1015.91 1015.87 1015.90 1016.04 1016.29 1016.64 1017.05 1017.48 1017.88 1018.22 1018.48 1018.66 1018.77
1014.86 1014.96 1015.08 1015.21 1015.33 1015.43 1015.50 1015.55 1015.58 1015.60 1015.62 1015.64 1015.66 1015.68 1015.69 1015.66 1015.61 1015.54 1015.45 1015.39 1015.36 1015.38 1015.45 1015.56 1015.70 1015.82 1015.90 1015.93 1015.90 1015.82 1015.73 1015.66 1015.66 1015.75 1015.94 1016.23 1016.58 1016.97 1017.35 1017.68 1017.96 1018.16 1018.31
1014.85 1014.96 1015.09 1015.22 1015.33 1015.43 1015.49 1015.52 1015.52 1015.50 1015.48 1015.45 1015.41 1015.38 1015.34 1015.29 1015.24 1015.18 1015.14 1015.12 1015.14 1015.20 1015.29 1015.41 1015.54 1015.64 1015.70 1015.70 1015.65 1015.56 1015.45 1015.37 1015.34 1015.40 1015.55 1015.78 1016.08 1016.42 1016.76 1017.08 1017.35 1017.57 1017.74
1014.77 1014.90 1015.04 1015.17 1015.29 1015.38 1015.43 1015.45 1015.43 1015.38 1015.31 1015.23 1015.15 1015.07 1014.99 1014.93 1014.89 1014.86 1014.86 1014.88 1014.94 1015.03 1015.13 1015.24 1015.34 1015.41 1015.44 1015.41 1015.34 1015.24 1015.13 1015.05 1015.01 1015.05 1015.16 1015.35 1015.60 1015.89 1016.18 1016.47 1016.72 1016.93 1017.11
1014.62 1014.77 1014.93 1015.08 1015.21 1015.31 1015.37 1015.38 1015.36 1015.29 1015.19 1015.07 1014.94 1014.83 1014.73 1014.67 1014.63 1014.63 1014.66 1014.72 1014.81 1014.90 1015.00 1015.08 1015.14 1015.17 1015.16 1015.10 1015.02 1014.92 1014.83 1014.76 1014.73 1014.76 1014.85 1015.00 1015.20 1015.43 1015.67 1015.91 1016.13 1016.32 1016.49
1014.41 1014.59 1014.78 1014.95 1015.10 1015.22 1015.31 1015.34 1015.32 1015.25 1015.14 1015.00 1014.85 1014.72 1014.61 1014.54 1014.52 1014.54 1014.59 1014.67 1014.77 1014.86 1014.93 1014.98 1015.00 1014.98 1014.93 1014.86 1014.77 1014.68 1014.61 1014.57 1014.56 1014.59 1014.66 1014.78 1014.92 1015.09 1015.27 1015.45 1015.63 1015.79 1015.95
1014.20 1014.40 1014.61 1014.81 1014.99 1015.15 1015.26 1015.32 1015.33 1015.27 1015.16 1015.02 1014.87 1014.73 1014.62 1014.55 1014.53 1014.56 1014.63 1014.72 1014.81 1014.89 1014.94 1014.95 1014.92 1014.87 1014.79 1014.71 1014.63 1014.56 1014.52 1014.50 1014.51 1014.54 1014.60 1014.67 1014.76 1014.87 1014.99 1015.11 1015.25 1015.39 1015.53
1014.03 1014.24 1014.46 1014.68 1014.89 1015.07 1015.22 1015.31 1015.35 1015.32 1015.22 1015.09 1014.94 1014.80 1014.69 1014.62 1014.61 1014.65 1014.72 1014.81 1014.90 1014.96 1014.98 1014.97 1014.91 1014.84 1014.75 1014.66 1014.60 1014.55 1014.54 1014.54 1014.56 1014.59 1014.63 1014.66 1014.70 1014.74 1014.81 1014.89 1015.00 1015.13 1015.27
1013.96 1014.17 1014.38 1014.60 1014.82 1015.02 1015.18 1015.30 1015.35 1015.34 1015.26 1015.14 1014.99 1014.85 1014.73 1014.67 1014.66 1014.70 1014.78 1014.87 1014.96 1015.01 1015.02 1015.00 1014.93 1014.85 1014.76 1014.68 1014.63 1014.61 1014.62 1014.64 1014.66 1014.68 1014.68 1014.68 1014.67 1014.67 1014.69 1014.75 1014.84 1014.98 1015.15
Thickness
5776 5777 5770 5771 5773 5774 5776 5777 5779 5780 5780 5780 5781 5781 5782 5781 5781 5781 5780 5780 5780 5779 5778 5777 5776 5775 5774 5772 5771 5769 5768 5766 5765 5763 5761 5760 5758 5756 5755 5753 5753 5752 5747
5778 5776 5770 5771 5772 5774 5775 5776 5777 5779 5779 5779 5779 5779 5779 5779 5779 5779 5779 5778 5778 5777 5776 5775 5774 5773 5772 5770 5769 5767 5766 5764 5763 5762 5760 5758 5756 5754 5753 5753 5753 5751 5747
5779 5777 5773 5771 5772 5773 5774 5775 5776 5777 5778 5778 5778 5777 5777 5778 5777 5777 5777 5776 5776 5775 5774 5773 5772 5771 5770 5768 5767 5766 5764 5763 5762 5761 5761 5761 5756 5753 5752 5751 5749 5747 5745
5779 5777 5774 5771 5772 5773 5774 5775 5775 5776 5777 5777 5777 5776 5776 5776 5776 5775 5775 5774 5774 5773 5772 5771 5770 5769 5768 5767 5766 5764 5763 5762 5761 5762 5764 5763 5758 5751 5750 5749 5747 5746 5744
5778 5776 5773 5770 5771 5772 5773 5774 5774 5775 5775 5776 5775 5775 5775 5774 5774 5774 5773 5773 5772 5771 5770 5769 5768 5767 5766 5765 5764 5763 5761 5761 5761 5763 5763 5761 5756 5750 5748 5747 5746 5744 5742
5778 5777 5773 5770 5770 5771 5771 5772 5773 5774 5774 5775 5775 5774 5774 5773 5772 5772 5771 5771 5770 5769 5769 5767 5766 5765 5764 5763 5762 5761 5760 5761 5763 5765 5761 5760 5756 5749 5747 5746 5745 5743 5741
5779 5778 5774 5770 5770 5770 5771 5771 5772 5773 5773 5774 5774 5773 5773 5772 5771 5770 5770 5769 5768 5767 5766 5765 5765 5763 5763 5762 5761 5760 5760 5761 5766 5764 5760 5759 5754 5748 5746 5745 5743 5742 5740
5780 5778 5775 5771 5770 5769 5770 5770 5770 5771 5772 5773 5773 5773 5772 5771 5770 5770 5769 5768 5767 5766 5765 5764 5763 5762 5761 5761 5760 5759 5759 5761 5763 5763 5760 5757 5750 5747 5745 5744 5742 5740 5739
5781 5779 5778 5776 5772 5770 5770 5770 5769 5770 5771 5771 5772 5772 5771 5770 5769 5768 5768 5767 5766 5765 5764 5763 5762 5761 5761 5760 5759 5758 5758 5760 5765 5762 5760 5756 5749 5746 5744 5743 5741 5739 5738
5780 5780 5778 5778 5776 5775 5772 5768 5768 5769 5770 5770 5770 5770 5770 5769 5769 5768 5767 5766 5765 5764 5764 5763 5762 5761 5760 5759 5758 5757 5757 5760 5765 5764 5760 5754 5748 5745 5744 5742 5741 5739 5737
5777 5779 5780 5779 5777 5776 5775 5770 5769 5769 5769 5770 5770 5770 5771 5773 5772 5770 5767 5766 5765 5764 5763 5762 5761 5761 5760 5759 5758 5757 5759 5764 5765 5763 5759 5751 5747 5745 5743 5742 5740 5738 5737
5775 5778 5779 5778 5776 5776 5775 5772 5772 5772 5770 5771 5771 5771 5771 5770 5771 5770 5765 5765 5765 5764 5763 5762 5762 5761 5762 5763 5760 5759 5764 5766 5765 5763 5757 5750 5747 5745 5743 5741 5739 5738 5736
5778 5778 5779 5777 5775 5775 5774 5773 5772 5772 5771 5771 5770 5770 5770 5771 5771 5770 5770 5768 5766 5765 5766 5764 5765 5767 5767 5765 5765 5765 5765 5766 5766 5764 5757 5750 5747 5745 5742 5741 5739 5737 5736
5779 5778 5779 5777 5775 5773 5773 5773 5772 5773 5772 5773 5770 5771 5771 5770 5770 5770 5770 5770 5769 5768 5766 5767 5766 5766 5765 5765 5765 5765 5765 5765 5764 5762 5755 5750 5747 5744 5743 5740 5739 5737 5735
5779 5779 5779 5776 5774 5772 5771 5772 5773 5772 5773 5772 5771 5770 5770 5771 5770 5770 5769 5768 5770 5769 5768 5766 5766 5765 5764 5765 5765 5764 5764 5763 5762 5761 5756 5750 5747 5745 5742 5741 5739 5737 5736
5782 5781 5781 5778 5776 5773 5772 5771 5772 5773 5771 5772 5771 5770 5769 5770 5769 5770 5769 5769 5770 5769 5768 5767 5766 5765 5765 5764 5764 5763 5763 5762 5760 5758 5757 5752 5747 5745 5743 5741 5739 5737 5736
5785 5784 5782 5780 5778 5776 5775 5774 5775 5774 5774 5773 5771 5770 5770 5770 5769 5769 5770 5770 5770 5769 5767 5766 5765 5765 5764 5764 5763 5762 5762 5760 5759 5757 5756 5754 5751 5746 5743 5741 5739 5738 5736
5790 5786 5784 5785 5781 5778 5776 5775 5777 5776 5775 5774 5773 5772 5771 5770 5769 5769 5771 5771 5769 5769 5768 5766 5766 5765 5763 5763 5761 5761 5761 5759 5758 5756 5756 5753 5751 5750 5745 5742 5739 5737 5736
5793 5789 5786 5785 5783 5781 5779 5777 5777 5776 5775 5775 5775 5774 5772 5771 5770 5771 5771 5769 5768 5769 5769 5768 5767 5765 5762 5761 5761 5759 5760 5759 5757 5757 5755 5753 5752 5749 5747 5742 5739 5737 5735
5797 5792 5789 5787 5785 5784 5783 5780 5779 5778 5777 5776 5775 5774 5772 5772 5771 5771 5771 5769 5769 5769 5767 5766 5763 5762 5761 5760 5760 5758 5758 5758 5757 5755 5754 5753 5750 5748 5746 5744 5741 5738 5735
5800 5795 5792 5789 5787 5785 5784 5782 5779 5778 5778 5778 5777 5775 5773 5772 5772 5770 5772 5769 5768 5768 5766 5766 5764 5762 5760 5760 5757 5754 5755 5756 5755 5753 5752 5750 5749 5746 5744 5742 5740 5739 5736
5803 5799 5796 5792 5791 5789 5787 5784 5783 5782 5781 5780 5778 5775 5774 5773 5772 5773 5770 5770 5769 5767 5765 5763 5761 5760 5760 5760 5756 5751 5748 5749 5749 5752 5749 5747 5746 5744 5743 5741 5738 5736 5735
5808 5805 5803 5798 5795 5792 5790 5788 5786 5782 5781 5781 5778 5777 5775 5774 5772 5771 5770 5770 5768 5768 5766 5763 5761 5758 5757 5758 5758 5753 5747 5745 5746 5746 5745 5744 5742 5740 5739 5737 5735 5733 5732
5815 5812 5807 5803 5798 5795 5793 5790 5786 5783 5781 5781 5780 5779 5777 5774 5773 5771 5770 5769 5767 5768 5765 5764 5764 5761 5757 5756 5756 5756 5754 5753 5744 5740 5741 5741 5739 5736 5735 5735 5733 5730 5729
5822 5818 5813 5807 5802 5799 5796 5792 5788 5786 5785 5785 5782 5779 5777 5776 5774 5773 5771 5769 5767 5767 5765 5763 5761 5760 5760 5757 5756 5755 5752 5750 5748 5741 5735 5735 5735 5735 5733 5731 5729 5727 5725
5826 5822 5817 5810 5805 5802 5798 5796 5791 5787 5785 5783 5780 5779 5777 5777 5775 5773 5771 5768 5767 5766 5764 5762 5760 5760 5759 5757 5756 5756 5752 5748 5745 5743 5738 5734 5731 5730 5729 5727 5725 5723 5721